www.pogodaiklimat.ru

Погода и климат >> Архив погоды >> Малайзия >> Kuantan


ПОГОДА в Kuantan

  • Прогноз погоды в Kuantan
  • Монитор погоды в Kuantan
  • Климат города

АРХИВ ПОГОДЫ в Kuantan

Время (UTC), дата Ветер
(напр.,м/с)
 
Видим.   Явления Облачность Т
(С)
Тd
(С)
f
(%)
Тe
(С)
Тes
(С)
Комфортность P
(гПа)
Po
(гПа)
Тmin
(С)
Tmax
(С)
R
(мм)
S
(см)
18 18.03 штиль 0 12 км мгла 8/1 720 м
[Sc Ac trans Ci fib]
+25.2 +23.6 91 +34 +34 очень
душно
1011.5 1009.7
21 18.03 штиль 0 10 км мгла 8/3 210 м
[Sc Ac trans Ci fib]
+24.1 +23.2 95 +32 +32 очень
душно
1010.9 1009.1
00 19.03 штиль 0 13 км мгла 8/1 600 м
[Cu hum Ac trans Ci sp]
+23.9 +23.1 95 +32 +33 очень
душно
1012.7 1010.9 +23.6
03 19.03 СЗ 1 18 км мгла 8/4 600 м
[Cu med, cong Ac trans Ci sp]
+29.5 +25.3 78 +43 +50 опасность
перегрева
1013.5 1011.7
06 19.03 СВ 3 16 км мгла 8/4 570 м
[Cu med, cong Ac trans Ci sp]
+32.3 +26.1 70 +48 +56 опасность
перегрева
1010.7 1009.0
09 19.03 СВ 4 16 км мгла 8/4 540 м
[Cu med, cong Ac trans Ci sp]
+31.4 +25.8 72 +46 +48 опасность
перегрева
1008.7 1007.0
12 19.03 С 1 12 км зарница 8/4 500 м
[Cb cap Ac trans Ci sp]
+28.2 +25.0 83 +41 +41 опасность
перегрева
1010.1 1008.3 +32.7
15 19.03 СЗ 2 12 км зарница 8/4 500 м
[Cb cap Ac trans Ci sp]
+26.6 +24.7 89 +38 +38 очень
душно
1012.8 1011.0
18 19.03 СЗ 2 12 км слабый дождь 8/4 500 м
[Cb cap Ac trans Ci sp]
+26.4 +24.7 90 +37 +37 очень
душно
1011.8 1010.0
21 19.03 штиль 0 8000 м зарница {дождь} 8/4 500 м
[Cb cap Ac lent Cs]
+25.8 +24.5 93 +36 +36 очень
душно
1010.8 1009.0
00 20.03 штиль 0 14 км мгла 8/1 720 м
[Sc Ac trans Ci fib]
+25.6 +24.6 94 +36 +37 очень
душно
1012.3 1010.5 +23.9
03 20.03 З 1 17 км мгла 8/4 540 м
[Cu hum Ac trans Ci fib]
+29.9 +23.9 70 +41 +49 опасность
перегрева
1013.4 1011.6
06 20.03 Ю 5 15 км гроза без осадков 8/4 480 м
[Cb cap Ac trans Ci fib]
+26.5 +24.4 88 +37 +42 очень
душно
1011.8 1010.0
09 20.03 СЗ 2 17 км мгла 8/4 500 м
[Cu Sc Ac trans Ci fib]
+28.8 +24.8 79 +41 +44 опасность
перегрева
1009.3 1007.6
12 20.03 Ю 2 13 км мгла 8/1 750 м
[Sc Ac trans Ci sp]
+26.7 +24.6 88 +38 +38 очень
душно
1010.2 1008.4 +31.3
15 20.03 СЗ 1 12 км мгла 8/1 750 м
[Sc Ac trans Ci sp]
+24.7 +23.5 93 +33 +33 очень
душно
1011.3 1009.5
18 20.03 СЗ 1 12 км мгла 8/1 750 м
[Sc Ac trans Ci sp]
+24.6 +23.4 93 +33 +33 очень
душно
1011.0 1009.2
21 20.03 штиль 0 12 км дымка 8/3 750 м
[Sc Ac trans Ci sp]
+23.8 +23.0 95 +32 +32 очень
душно
1010.2 1008.4
00 21.03 штиль 0 16 км дымка 5/1 750 м
[Sc Ac trans Ci fib]
+23.4 +22.7 96 +33 +34 очень
душно
1011.5 1009.7 +23.0
03 21.03 З 2 16 км мгла 8/3 570 м
[Cu hum Ac trans Ci fib]
+30.0 +25.1 75 +43 +50 опасность
перегрева
1012.4 1010.7
06 21.03 В 2 17 км мгла 8/4 540 м
[Cu hum Ac trans Ci fib]
+33.2 +27.1 70 +51 +60 опасность
перегрева
1009.5 1007.8
09 21.03 ЮЗ 4 2000 м гроза, ливневой дождь 8/5 500 м
[Cb cap Ac lent Cs]
+24.3 +23.1 93 +32 +34 очень
душно
1008.9 1007.1
12 21.03 СЗ 4 12 км слабый дождь {гроза} 8/4 500 м
[Cb cap Ac trans Cs]
+23.3 +22.5 95 +32 +32 очень
душно
1009.6 1007.8 +33.6 30
15 21.03 СЗ 1 12 км мгла {дождь} 8/1 750 м
[Sc Ac trans Ci sp]
+24.4 +23.5 95 +33 +33 очень
душно
1012.2 1010.4
18 21.03 СЗ 2 12 км мгла {дождь} 8/1 750 м
[Sc Ac trans Ci sp]
+23.9 +23.0 95 +32 +32 очень
душно
1010.8 1009.0
21 21.03 СЗ 2 10 км дымка 8/3 300 м
[Sc Ac trans Ci sp]
+23.5 +22.8 96 +31 +31 очень
душно
1009.4 1007.6
00 22.03 штиль 0 14 км мгла 5/1 600 м
[Cu hum Ac trans Ci fib]
+23.5 +22.8 96 +31 +32 очень
душно
1010.5 1008.7 +23.0 30
03 22.03 СЗ 3 18 км 8/3 540 м
[Cu med, cong Ac trans Ci fib]
+29.9 +26.0 80 +45 +52 опасность
перегрева
1011.6 1009.9
06 22.03 СВ 3 14 км мгла 8/4 540 м
[Cb calv Ac lent Ci sp]
+32.0 +27.0 75 +50 +57 опасность
перегрева
1008.7 1007.0
09 22.03 В 4 15 км мгла 8/4 500 м
[Cb cap Ac lent Ci sp]
+31.5 +26.2 74 +48 +49 опасность
перегрева
1006.8 1005.1
12 22.03 С 1 12 км мгла 8/1 750 м
[Cu hum Ac trans Ci fib]
+28.4 +25.2 83 +41 +41 опасность
перегрева
1008.4 1006.7 +32.7
15 22.03 СЗ 1 12 км мгла 8/1 720 м
[Sc Ac trans Ci fib]
+27.2 +25.4 90 +40 +40 очень
душно
1010.4 1008.6
18 22.03 СЗ 2 12 км мгла 8/1 720 м
[Sc Ac trans Ci fib]
+26.0 +24.8 93 +37 +37 очень
душно
1010.2 1008.4
21 22.03 СЗ 1 10 км мгла 8/1 720 м
[Sc Ac trans Ci sp]
+25.3 +24.5 95 +35 +35 очень
душно
1009.6 1007.8
00 23.03 С 2 14 км мгла 8/3 600 м
[Cu Sc Ac trans Ci sp]
+25.3 +24.4 95 +35 +36 очень
душно
1010.7 1008.9 +23.5
03 23.03 С 2 16 км мгла 8/4 570 м
[Cu med, cong Ac trans Ci sp]
+29.1 +25.8 82 +43 +50 опасность
перегрева
1012.3 1010.5
06 23.03 СВ 3 16 км мгла 8/5 540 м
[Cu med, cong Ac trans Ci sp]
+32.1 +25.9 70 +48 +54 опасность
перегрева
1009.1 1007.4
09 23.03 СВ 3 16 км мгла 8/3 540 м
[Cu med, cong Ac trans Ci sp]
+31.8 +25.9 71 +47 +49 опасность
перегрева
1006.8 1005.1
12 23.03 С 1 14 км мгла 8/1 750 м
[Sc Ac trans Ci sp]
+28.2 +25.1 83 +41 +41 опасность
перегрева
1008.3 1006.6 +32.5
15 23.03 штиль 0 12 км мгла 8/1 750 м
[Sc Ac trans Ci sp]
+26.6 +24.7 89 +38 +38 очень
душно
1011.2 1009.4
18 23.03 СЗ 2 9000 м мгла 8/3 720 м
[Sc Ac trans Ci sp]
+26.1 +24.7 92 +37 +37 очень
душно
1010.6 1008.8
21 23.03 СЗ 2 9000 м мгла 8/3 750 м
[Sc Ac lent Ci sp]
+25.1 +24.3 95 +35 +35 очень
душно
1009.2 1007.4
00 24.03 СЗ 1 10 км мгла 8/3 570 м
[Cu Sc Ac lent Cs]
+25.4 +24.4 94 +35 +36 очень
душно
1011.5 1009.7 +25.0
03 24.03 С 2 14 км мгла 8/3 570 м
[Cu med, cong Ac lent Ci sp]
+30.4 +24.9 72 +43 +51 опасность
перегрева
1012.7 1011.0
06 24.03 СВ 3 14 км мгла 8/4 540 м
[Cb calv Ac lent Ci sp]
+30.9 +25.3 72 +45 +52 опасность
перегрева
1010.5 1008.8
09 24.03 СВ 2 14 км мгла 8/3 500 м
[Cb cap Ac lent Ci sp]
+30.5 +25.7 76 +45 +48 опасность
перегрева
1008.4 1006.7
12 24.03 С 1 12 км зарница 8/3 500 м
[Cb cap Ac trans Ci sp]
+28.4 +24.8 81 +41 +41 опасность
перегрева
1010.1 1008.3 +31.5
15 24.03 С 1 12 км мгла 8/1 750 м
[Sc Ac trans Ci sp]
+26.7 +24.8 89 +38 +38 очень
душно
1011.3 1009.5
18 24.03 СЗ 1 12 км мгла 8/1 750 м
[Sc Ac trans Ci sp]
+25.5 +24.2 93 +35 +35 очень
душно
1011.0 1009.2
21 24.03 штиль 0 11 км мгла 8/3 750 м
[Sc Ac lent Ci sp]
+24.9 +23.8 94 +34 +34 очень
душно
1010.1 1008.3
00 25.03 штиль 0 14 км мгла 8/1 660 м
[Sc Ac trans Ci fib]
+24.6 +23.7 95 +33 +34 очень
душно
1011.4 1009.6 +24.2
03 25.03 С 2 16 км мгла 8/3 570 м
[Cu hum Ac trans Ci fib]
+30.8 +26.1 76 +46 +54 опасность
перегрева
1012.8 1011.1
06 25.03 В 3 15 км мгла 8/6 540 м
[Cu med, cong As trans Ci ing]
+32.4 +26.9 73 +50 +55 опасность
перегрева
1009.8 1008.1
09 25.03 СВ 4 14 км мгла 8/4 500 м
[Cb cap Ac lent Ci sp]
+30.9 +26.4 77 +47 +49 опасность
перегрева
1007.5 1005.8
12 25.03 СВ 2 14 км зарница 8/4 500 м
[Cb cap Ac trans Ci sp]
+28.9 +25.7 83 +43 +43 опасность
перегрева
1009.1 1007.4 +33.2

 

Местоположение метеостанции Kuantan (Малайзия): широта 3.78 долгота 103.21 высота над уровнем моря 16 м.

В архиве по умолчанию представлена погода в Kuantan за последнюю неделю. Архивные данные за месяц целиком и за предыдущие месяцы, начиная с января 2011 года, Вы можете получить, выбрав интересующий диапазон дат из раскрывающегося списка и нажав кнопку "Ввод!".

Внимание! Время в таблицах - всемирное. Для получения местного времени необходимо прибавить поправку, которая в Kuantan равна 7 ч.

Смотрите также архив погоды в соседних городах и на ближайших метеорологических станциях:

Погода в Kuala Trengganu (Малайзия) (178 км)
Погода в Mersing (Малайзия) (198 км)
Погода в Kuala Lumpur (Малайзия) (198 км)
Погода в Malacca (Малайзия) (199 км)
Погода в Kuala Lumpur Int Airport (Малайзия) (205 км)
Погода в Cameron Highlands (Малайзия) (218 км)
Погода в Johore Bharu / Senai (Малайзия) (245 км)
Погода в Ipoh (Малайзия) (250 км)
Погода в Singapore (Сингапур) (281 км)
Погода в Sitiawan (Малайзия) (283 км)

Пояснения к столбцам:

Ветер - указаны скорость ветра в м/с - средняя за 10 мин, порывы в срок и между сроками (в фигурных скобках) и направление, откуда дует ветер: С - северный, СВ - северо-восточный, В - восточный, ЮВ - юго-восточный, Ю - южный, ЮЗ - юго-западный, З - западный, СЗ - северо-западный.
Видимость - горизонтальная дальность видимости в метрах или километрах. При видимости от 1 до 10 км при отсутствии осадков обычно наблюдается дымка, при ухудшении видимости до 1 км и менее - туман. В сухую погоду видимость может ухудшаться дымом, пылью или мглою.
Явления - указаны атмосферные явления, наблюдавшиеся в срок или в последний час перед сроком; фигурными скобками обозначены явления, наблюдавшиеся между сроками (за 1-3 часа до срока); квадратными скобками обозначены град или гололедные отложения с указанием их диаметра в мм.
Облачность - указаны через наклонную черту общая и нижняя облачность в баллах и высота нижней границы облаков в метрах; квадратными скобками обозначены формы облаков: Ci - перистые, Cs - перисто-слоистые, Cc - перисто-кучевые, Ac - высококучевые, As - высокослоистые, Sc - слоисто-кучевые, Ns - слоисто-дождевые, Cu - кучевые, Cb - кучево-дождевые. Подробнее классификацию облаков см. в Атласе облаков (PDF).
T - Температура воздуха - температура, измеренная на высоте 2 м над землей.
Td - Температура точки росы - температура, при понижении до которой содержащийся в воздухе водяной пар достигнет насыщения.
f - Относительная влажность воздуха - влажноcть воздуха, измеренная на высоте 2 м над землей.
Te - Эффективная температура - температура, которую ощущает одетый по сезону человек в тени. Характеристика душности погоды. При расчете учитывается влияние влажности воздуха и скорости ветра на теплоощущения человека.
Tes - Эффективная температура на солнце - температура, которую ощущает человек, с поправкой на солнечный нагрев. Характеристика знойности погоды. Зависит от высоты солнца над горизонтом, облачности и скорости ветра. Ночью, в пасмурную погоду, а также при ветре 12 м/с и более поправка равна нулю.
P - Атмосферное давление - приведенное к уровню моря атмосферное давление.
Po - Атмосферное давление - измеренное на уровне метеостанции атмосферное давление.
Tmin - Минимальная температура - минимум температуры воздуха на высоте 2 м над землей.
Tmax - Максимальная температура - максимум температуры воздуха на высоте 2 м над землей.
R - Количество осадков - Количество выпавших осадков, мм. При наведении курсора мыши на число - период времени, за который выпало указанное количество осадков.
S - Снежный покров - Высота снежного покрова, см. При наведении курсора мыши на число - состояние снежного покрова и степень покрытия местности в баллах.